Location: Rounton
(54.4000°N, 1.3500°W)
Time: 03:09:56
(UTC+01:00)

deb Agena D - Visible Passes

Search period start: 01 July 2022 00:00
Search period end: 11 July 2022 00:00
Orbit: 999 x 1024 km, 100.1° (Epoch: 30 June)

Date Brightness Start Highest point End Pass type
(mag) Time Alt. Az. Time Alt. Az. Time Alt. Az.
01 Jul ? 01:35:06 10° SW 01:39:42 21° W 01:44:20 10° NW visible
01 Jul ? 22:40:47 10° SE 22:46:39 41° ENE 22:52:31 10° N visible
02 Jul ? 00:25:06 15° S 00:30:22 54° WSW 00:36:38 10° NNW visible
02 Jul ? 02:13:33 10° W 02:15:43 12° W 02:17:53 10° WNW visible
02 Jul ? 23:15:32 10° SE 23:21:44 63° ENE 23:28:02 10° NNW visible
03 Jul ? 01:00:57 13° SSW 01:06:00 33° W 01:11:42 10° NNW visible
03 Jul ? 23:51:24 14° SSE 23:57:01 84° WSW 00:03:26 10° NNW visible
04 Jul ? 01:37:16 10° SW 01:41:48 20° W 01:46:23 10° NW visible
04 Jul ? 22:42:50 10° SE 22:48:42 41° ENE 22:54:36 10° N visible
05 Jul ? 00:27:16 15° S 00:32:28 53° WSW 00:38:42 10° NNW visible
05 Jul ? 02:15:50 10° W 02:17:50 11° W 02:19:49 10° WNW visible
05 Jul ? 23:17:43 11° SE 23:23:49 64° ENE 23:30:07 10° NNW visible
06 Jul ? 01:03:08 13° SSW 01:08:05 33° W 01:13:45 10° NNW visible
06 Jul ? 23:53:35 14° SSE 23:59:06 83° WSW 00:05:31 10° NNW visible
07 Jul ? 01:39:26 10° SW 01:43:54 20° W 01:48:25 10° NW visible
07 Jul ? 22:44:53 10° SE 22:50:46 42° ENE 22:56:42 10° N visible
08 Jul ? 00:29:27 15° S 00:34:33 52° W 00:40:46 10° NNW visible
08 Jul ? 02:18:10 10° W 02:19:56 11° W 02:21:43 10° WNW visible
08 Jul ? 23:19:54 11° SE 23:25:53 65° ENE 23:32:12 10° NNW visible
09 Jul ? 01:05:20 13° SSW 01:10:11 32° W 01:15:49 10° NNW visible
09 Jul ? 23:55:47 15° SSE 00:01:11 82° WSW 00:07:35 10° NNW visible
10 Jul ? 01:41:36 10° SW 01:46:01 19° W 01:50:27 10° NW visible
10 Jul ? 22:46:56 10° SE 22:52:50 43° ENE 22:58:46 10° N visible
